LIC9562 LEBB-LEZL

Flight info

Callsign LIC9562
Flight time 1h 10m
Altitude 33000
Route AMTOS L14 NEA N864 MONTO N857 HIJ
Aircraft B738/M-SDE2E3FGHIRWXY/LB1

Departure

Time 2026-04-21 15:30
Airport Bilbao Airport (LEBB)

Arrival

Time 2026-04-21 16:40
Airport Seville Airport (LEZL)
Time Latitude Longitude Altitude Speed Heading
2026-04-21 15:16 43.30412 -2.90578 155 ft 0 kts 25°
2026-04-21 15:25 43.30396 -2.90588 150 ft 3 kts 25°
2026-04-21 15:25 43.30384 -2.90596 149 ft 3 kts 33°
2026-04-21 15:25 43.30370 -2.90614 147 ft 3 kts 65°
2026-04-21 15:25 43.30366 -2.90648 146 ft 3 kts 105°
2026-04-21 15:26 43.30369 -2.90658 146 ft 0 kts 119°
2026-04-21 15:26 43.30356 -2.90635 145 ft 10 kts 132°
2026-04-21 15:26 43.30277 -2.90553 142 ft 15 kts 149°
2026-04-21 15:26 43.30169 -2.90562 137 ft 18 kts 192°
2026-04-21 15:27 43.30082 -2.90463 136 ft 17 kts 120°
2026-04-21 15:27 43.30025 -2.90323 139 ft 16 kts 116°
2026-04-21 15:27 43.29976 -2.90187 139 ft 16 kts 116°
2026-04-21 15:27 43.29928 -2.90054 139 ft 16 kts 116°
2026-04-21 15:28 43.29875 -2.89912 140 ft 17 kts 117°
2026-04-21 15:28 43.29824 -2.89771 138 ft 16 kts 116°
2026-04-21 15:28 43.29775 -2.89636 139 ft 15 kts 118°
2026-04-21 15:28 43.29689 -2.89620 137 ft 15 kts 223°
2026-04-21 15:29 43.29648 -2.89744 136 ft 15 kts 275°
2026-04-21 15:29 43.29697 -2.89943 136 ft 50 kts 294°
2026-04-21 15:29 43.29989 -2.90737 129 ft 133 kts 296°
2026-04-21 15:29 43.30499 -2.92128 357 ft 182 kts 298°
2026-04-21 15:30 43.31078 -2.93711 1328 ft 185 kts 298°
2026-04-21 15:30 43.31657 -2.95359 2217 ft 200 kts 294°
2026-04-21 15:30 43.32340 -2.97162 2579 ft 231 kts 305°
2026-04-21 15:30 43.33711 -2.98514 2814 ft 261 kts 343°
2026-04-21 15:31 43.35490 -2.99400 3190 ft 281 kts 323°
2026-04-21 15:31 43.36762 -3.01384 4233 ft 276 kts 302°
2026-04-21 15:31 43.37891 -3.03544 5271 ft 280 kts 305°
2026-04-21 15:31 43.39089 -3.05609 6238 ft 280 kts 307°
2026-04-21 15:32 43.40492 -3.07486 7030 ft 288 kts 328°
2026-04-21 15:32 43.42428 -3.08242 7867 ft 295 kts 358°
2026-04-21 15:32 43.44432 -3.07662 8750 ft 298 kts 25°
2026-04-21 15:32 43.46088 -3.05932 9566 ft 302 kts 51°
2026-04-21 15:33 43.47072 -3.03389 10310 ft 304 kts 77°
2026-04-21 15:33 43.47238 -3.00463 10623 ft 322 kts 100°
2026-04-21 15:33 43.46521 -2.97458 10824 ft 341 kts 122°
2026-04-21 15:33 43.44930 -2.95024 11298 ft 347 kts 149°
2026-04-21 15:34 43.42691 -2.93864 12018 ft 346 kts 174°
2026-04-21 15:34 43.40285 -2.93647 12882 ft 347 kts 180°
2026-04-21 15:34 43.37856 -2.93520 13607 ft 352 kts 178°
2026-04-21 15:34 43.35391 -2.93269 14304 ft 356 kts 176°
2026-04-21 15:35 43.32912 -2.92940 15049 ft 358 kts 177°
2026-04-21 15:35 43.30439 -2.93224 15744 ft 360 kts 196°
2026-04-21 15:35 43.28184 -2.94593 16416 ft 362 kts 212°
2026-04-21 15:35 43.26090 -2.96566 17107 ft 366 kts 215°
2026-04-21 15:36 43.24016 -2.98633 17759 ft 370 kts 216°
2026-04-21 15:36 43.21929 -3.00729 18404 ft 372 kts 216°
2026-04-21 15:36 43.19826 -3.02825 18983 ft 375 kts 215°
2026-04-21 15:36 43.17725 -3.04900 19547 ft 378 kts 215°
2026-04-21 15:37 43.15573 -3.07006 20115 ft 381 kts 215°
2026-04-21 15:37 43.13403 -3.09119 20713 ft 383 kts 215°
2026-04-21 15:37 43.11239 -3.11220 21300 ft 386 kts 215°
2026-04-21 15:37 43.09044 -3.13348 21871 ft 388 kts 215°
2026-04-21 15:38 43.06819 -3.15504 22386 ft 392 kts 215°
2026-04-21 15:38 43.04573 -3.17678 22910 ft 395 kts 215°
2026-04-21 15:38 43.02319 -3.19858 23426 ft 398 kts 215°
2026-04-21 15:38 43.00053 -3.22047 23882 ft 400 kts 215°
2026-04-21 15:39 42.97762 -3.24222 24354 ft 401 kts 214°
2026-04-21 15:39 42.95469 -3.26357 24810 ft 403 kts 214°
2026-04-21 15:39 42.93136 -3.28513 25246 ft 405 kts 214°
2026-04-21 15:39 42.90789 -3.30678 25681 ft 407 kts 214°
2026-04-21 15:40 42.88429 -3.32856 26093 ft 410 kts 214°
2026-04-21 15:40 42.86063 -3.35041 26512 ft 411 kts 214°
2026-04-21 15:40 42.83714 -3.37211 26909 ft 413 kts 214°
2026-04-21 15:40 42.81329 -3.39415 27341 ft 415 kts 214°
2026-04-21 15:41 42.78921 -3.41638 27738 ft 417 kts 214°
2026-04-21 15:41 42.76543 -3.43833 28108 ft 418 kts 214°
2026-04-21 15:41 42.74130 -3.46059 28473 ft 420 kts 214°
2026-04-21 15:41 42.71700 -3.48298 28821 ft 422 kts 214°
2026-04-21 15:42 42.69274 -3.50530 29361 ft 419 kts 215°
2026-04-21 15:42 42.66865 -3.52744 29990 ft 415 kts 215°
2026-04-21 15:42 42.64477 -3.54938 30427 ft 413 kts 215°
2026-04-21 15:42 42.62091 -3.57128 30798 ft 413 kts 215°
2026-04-21 15:43 42.59712 -3.59309 31181 ft 412 kts 215°
2026-04-21 15:43 42.57371 -3.61453 31611 ft 410 kts 215°
2026-04-21 15:43 42.55007 -3.63616 32029 ft 408 kts 215°
2026-04-21 15:43 42.52652 -3.65770 32411 ft 408 kts 215°
2026-04-21 15:44 42.50297 -3.67922 32728 ft 408 kts 215°
2026-04-21 15:44 42.47929 -3.70083 32846 ft 413 kts 215°
2026-04-21 15:44 42.43126 -3.74462 32856 ft 423 kts 215°
2026-04-21 15:45 42.38182 -3.78961 32858 ft 429 kts 215°
2026-04-21 15:45 42.33205 -3.83478 32849 ft 430 kts 215°
2026-04-21 15:46 42.28260 -3.87958 32844 ft 430 kts 215°
2026-04-21 15:46 42.23293 -3.92451 32832 ft 428 kts 214°
2026-04-21 15:47 42.18368 -3.96897 32835 ft 427 kts 214°
2026-04-21 15:47 42.13430 -4.01348 32831 ft 425 kts 214°
2026-04-21 15:48 42.08508 -4.05775 32837 ft 424 kts 214°
2026-04-21 15:48 42.03367 -4.09665 32835 ft 425 kts 202°
2026-04-21 15:49 41.97663 -4.11595 32832 ft 428 kts 188°
2026-04-21 15:49 41.91715 -4.12246 32827 ft 429 kts 187°
2026-04-21 15:50 41.85753 -4.12862 32841 ft 429 kts 187°
2026-04-21 15:50 41.79794 -4.13520 32841 ft 429 kts 187°
2026-04-21 15:51 41.73855 -4.14195 32850 ft 430 kts 187°
2026-04-21 15:51 41.67900 -4.14873 32848 ft 431 kts 187°
2026-04-21 15:52 41.61908 -4.15553 32848 ft 432 kts 187°
2026-04-21 15:52 41.55901 -4.16233 32852 ft 432 kts 187°
2026-04-21 15:53 41.49937 -4.16907 32852 ft 433 kts 187°
2026-04-21 15:53 41.43916 -4.17579 32860 ft 433 kts 187°
2026-04-21 15:54 41.37932 -4.18243 32856 ft 433 kts 187°
2026-04-21 15:54 41.31916 -4.18910 32864 ft 433 kts 187°
2026-04-21 15:55 41.25942 -4.19573 32867 ft 432 kts 187°
2026-04-21 15:55 41.19929 -4.20244 32874 ft 432 kts 187°
2026-04-21 15:56 41.13931 -4.20915 32878 ft 432 kts 187°
2026-04-21 15:56 41.07975 -4.21579 32883 ft 431 kts 187°
2026-04-21 15:57 41.01981 -4.22246 32893 ft 431 kts 187°
2026-04-21 15:57 40.96035 -4.22904 32889 ft 430 kts 187°
2026-04-21 15:58 40.90072 -4.23562 32897 ft 429 kts 187°
2026-04-21 15:58 40.84107 -4.24219 32898 ft 429 kts 187°
2026-04-21 15:59 40.78157 -4.24874 32898 ft 428 kts 187°
2026-04-21 15:59 40.72257 -4.25522 32905 ft 428 kts 187°
2026-04-21 16:00 40.66314 -4.26173 32904 ft 427 kts 187°
2026-04-21 16:00 40.60370 -4.26824 32901 ft 428 kts 187°
2026-04-21 16:01 40.54461 -4.27470 32880 ft 429 kts 187°
2026-04-21 16:01 40.48497 -4.28120 32889 ft 429 kts 187°
2026-04-21 16:02 40.42557 -4.28767 32885 ft 430 kts 187°
2026-04-21 16:02 40.36584 -4.29415 32881 ft 431 kts 187°
2026-04-21 16:03 40.30595 -4.30066 32877 ft 432 kts 187°
2026-04-21 16:03 40.24592 -4.30716 32870 ft 433 kts 187°
2026-04-21 16:04 40.18578 -4.31366 32870 ft 433 kts 187°
2026-04-21 16:04 40.12585 -4.32012 32871 ft 434 kts 187°
2026-04-21 16:05 40.06558 -4.32661 32872 ft 434 kts 187°
2026-04-21 16:05 40.00571 -4.33305 32856 ft 433 kts 187°
2026-04-21 16:06 39.94575 -4.34137 32870 ft 431 kts 191°
2026-04-21 16:06 39.88653 -4.35473 32858 ft 431 kts 192°
2026-04-21 16:07 39.82770 -4.36805 32870 ft 430 kts 192°
2026-04-21 16:07 39.76857 -4.38104 32867 ft 430 kts 192°
2026-04-21 16:08 39.68033 -4.39998 32870 ft 429 kts 191°
2026-04-21 16:09 39.62163 -4.41244 32870 ft 428 kts 191°
2026-04-21 16:09 39.56270 -4.42495 32865 ft 428 kts 191°
2026-04-21 16:10 39.50413 -4.43738 32871 ft 428 kts 191°
2026-04-21 16:10 39.44526 -4.44986 32869 ft 428 kts 191°
2026-04-21 16:11 39.38636 -4.46233 32876 ft 428 kts 191°
2026-04-21 16:11 39.32740 -4.47479 32870 ft 429 kts 191°
2026-04-21 16:12 39.27840 -4.48512 32870 ft 429 kts 191°
2026-04-21 16:12 39.21175 -4.50863 32869 ft 427 kts 205°
2026-04-21 16:13 39.16925 -4.54076 32879 ft 426 kts 214°
2026-04-21 16:13 39.11197 -4.59057 32868 ft 427 kts 214°
2026-04-21 16:14 39.07079 -4.62588 32855 ft 427 kts 213°
2026-04-21 16:14 39.02118 -4.66803 32856 ft 425 kts 213°
2026-04-21 16:15 38.97172 -4.70995 32852 ft 424 kts 213°
2026-04-21 16:15 38.92270 -4.75144 32851 ft 424 kts 213°
2026-04-21 16:16 38.87334 -4.79317 32847 ft 424 kts 213°
2026-04-21 16:16 38.82426 -4.83461 32838 ft 424 kts 213°
2026-04-21 16:17 38.77493 -4.87618 32839 ft 423 kts 213°
2026-04-21 16:17 38.72565 -4.91764 32834 ft 423 kts 213°
2026-04-21 16:18 38.67652 -4.95892 32829 ft 423 kts 213°
2026-04-21 16:18 38.62755 -4.99998 32827 ft 422 kts 213°
2026-04-21 16:19 38.57855 -5.04102 32802 ft 409 kts 213°
2026-04-21 16:19 38.55514 -5.06061 32800 ft 394 kts 213°
2026-04-21 16:19 38.53231 -5.07968 32808 ft 391 kts 213°
2026-04-21 16:20 38.48783 -5.11920 32130 ft 396 kts 219°
2026-04-21 16:20 38.46708 -5.14175 31638 ft 387 kts 221°
2026-04-21 16:20 38.44707 -5.16456 31020 ft 381 kts 221°
2026-04-21 16:20 38.42745 -5.18709 30456 ft 377 kts 221°
2026-04-21 16:21 38.40799 -5.20926 29902 ft 375 kts 221°
2026-04-21 16:21 38.38850 -5.23120 29269 ft 373 kts 221°
2026-04-21 16:21 38.36906 -5.25289 28699 ft 369 kts 220°
2026-04-21 16:21 38.34998 -5.27403 28136 ft 366 kts 220°
2026-04-21 16:22 38.33080 -5.29519 27601 ft 364 kts 220°
2026-04-21 16:22 38.31170 -5.31620 27043 ft 361 kts 220°
2026-04-21 16:22 38.29272 -5.33704 26501 ft 358 kts 220°
2026-04-21 16:22 38.27387 -5.35771 25961 ft 356 kts 220°
2026-04-21 16:23 38.25514 -5.37825 25442 ft 354 kts 220°
2026-04-21 16:23 38.23653 -5.39862 24926 ft 352 kts 220°
2026-04-21 16:23 38.21797 -5.41893 24409 ft 350 kts 220°
2026-04-21 16:23 38.19978 -5.43882 23896 ft 349 kts 220°
2026-04-21 16:24 38.18129 -5.45902 23349 ft 348 kts 220°
2026-04-21 16:24 38.16297 -5.47904 22761 ft 345 kts 220°
2026-04-21 16:24 38.14490 -5.49875 22200 ft 338 kts 220°
2026-04-21 16:24 38.12745 -5.51778 21693 ft 332 kts 220°
2026-04-21 16:25 38.11007 -5.53672 21225 ft 328 kts 220°
2026-04-21 16:25 38.09274 -5.55561 20728 ft 326 kts 220°
2026-04-21 16:25 38.07555 -5.57432 20237 ft 325 kts 220°
2026-04-21 16:25 38.05840 -5.59297 19750 ft 323 kts 220°
2026-04-21 16:26 38.04136 -5.61148 19284 ft 322 kts 220°
2026-04-21 16:26 38.02436 -5.62995 18808 ft 321 kts 220°
2026-04-21 16:26 38.00734 -5.64844 18331 ft 321 kts 220°
2026-04-21 16:26 37.99052 -5.66669 17797 ft 322 kts 220°
2026-04-21 16:27 37.97352 -5.68513 17271 ft 319 kts 221°
2026-04-21 16:27 37.95674 -5.70331 16782 ft 315 kts 221°
2026-04-21 16:27 37.94020 -5.72122 16305 ft 311 kts 221°
2026-04-21 16:27 37.92383 -5.73894 15837 ft 308 kts 221°
2026-04-21 16:28 37.90761 -5.75648 15389 ft 305 kts 221°
2026-04-21 16:28 37.89174 -5.77363 14944 ft 302 kts 221°
2026-04-21 16:28 37.87576 -5.79090 14497 ft 300 kts 221°
2026-04-21 16:28 37.85992 -5.80801 14045 ft 298 kts 221°
2026-04-21 16:29 37.84417 -5.82500 13609 ft 296 kts 221°
2026-04-21 16:29 37.82852 -5.84189 13119 ft 294 kts 221°
2026-04-21 16:29 37.81317 -5.85845 12669 ft 292 kts 221°
2026-04-21 16:29 37.79779 -5.87503 12236 ft 288 kts 221°
2026-04-21 16:30 37.78249 -5.89149 11655 ft 288 kts 221°
2026-04-21 16:30 37.76728 -5.90786 11267 ft 282 kts 221°
2026-04-21 16:30 37.75285 -5.92339 11036 ft 270 kts 221°
2026-04-21 16:30 37.73869 -5.93862 10703 ft 265 kts 221°
2026-04-21 16:31 37.72472 -5.95364 10300 ft 262 kts 220°
2026-04-21 16:31 37.71085 -5.96853 9899 ft 261 kts 221°
2026-04-21 16:31 37.69701 -5.98340 9461 ft 261 kts 220°
2026-04-21 16:31 37.68325 -5.99821 9015 ft 259 kts 220°
2026-04-21 16:32 37.66954 -6.01289 8624 ft 257 kts 220°
2026-04-21 16:32 37.65617 -6.02748 8159 ft 257 kts 223°
2026-04-21 16:32 37.64347 -6.04311 7878 ft 249 kts 223°
2026-04-21 16:32 37.63110 -6.05750 7763 ft 235 kts 220°
2026-04-21 16:33 37.61867 -6.07047 7405 ft 234 kts 217°
2026-04-21 16:33 37.60552 -6.08307 6868 ft 240 kts 215°
2026-04-21 16:33 37.59161 -6.09503 6283 ft 248 kts 211°
2026-04-21 16:33 37.57666 -6.10641 5682 ft 254 kts 208°
2026-04-21 16:34 37.56072 -6.11673 5077 ft 259 kts 205°
2026-04-21 16:34 37.54427 -6.12573 4525 ft 255 kts 200°
2026-04-21 16:34 37.52767 -6.13331 3911 ft 251 kts 198°
2026-04-21 16:34 37.51107 -6.13957 3298 ft 246 kts 195°
2026-04-21 16:35 37.49479 -6.14457 2691 ft 243 kts 193°
2026-04-21 16:35 37.47825 -6.14851 2177 ft 237 kts 190°
2026-04-21 16:35 37.46264 -6.15114 2057 ft 216 kts 186°
2026-04-21 16:35 37.44829 -6.15259 1986 ft 197 kts 184°
2026-04-21 16:36 37.43524 -6.15299 1956 ft 179 kts 174°
2026-04-21 16:36 37.42464 -6.14675 1994 ft 169 kts 140°
2026-04-21 16:36 37.41782 -6.13440 1981 ft 177 kts 113°
2026-04-21 16:36 37.41747 -6.11857 2024 ft 188 kts 91°
2026-04-21 16:37 37.41770 -6.10208 2001 ft 191 kts 95°
2026-04-21 16:37 37.41759 -6.08577 2004 ft 182 kts 94°
2026-04-21 16:37 37.41721 -6.06977 1987 ft 183 kts 96°
2026-04-21 16:37 37.41738 -6.05376 2011 ft 181 kts 94°
2026-04-21 16:38 37.41753 -6.03792 1931 ft 182 kts 93°
2026-04-21 16:38 37.41756 -6.02153 1713 ft 192 kts 94°
2026-04-21 16:38 37.41760 -6.00468 1473 ft 192 kts 94°
2026-04-21 16:38 37.41768 -5.98811 1197 ft 186 kts 93°
2026-04-21 16:39 37.41772 -5.97250 1018 ft 172 kts 93°
2026-04-21 16:39 37.41776 -5.95815 806 ft 162 kts 94°
2026-04-21 16:39 37.41779 -5.94467 642 ft 145 kts 94°
2026-04-21 16:39 37.41793 -5.93228 430 ft 136 kts 95°
2026-04-21 16:40 37.41777 -5.92058 269 ft 133 kts 91°
2026-04-21 16:40 37.41796 -5.90929 106 ft 120 kts 90°
2026-04-21 16:40 37.41795 -5.90044 98 ft 74 kts 94°
2026-04-21 16:40 37.41796 -5.89591 98 ft 43 kts 88°
2026-04-21 16:41 37.41797 -5.89398 99 ft 27 kts 91°
2026-04-21 16:41 37.41889 -5.89291 99 ft 15 kts 332°
2026-04-21 16:41 37.41943 -5.89331 100 ft 5 kts 329°
2026-04-21 16:41 37.41971 -5.89362 98 ft 6 kts 299°
2026-04-21 16:42 37.41980 -5.89433 98 ft 13 kts 274°
2026-04-21 16:42 37.41981 -5.89570 97 ft 16 kts 271°
2026-04-21 16:42 37.41981 -5.89710 96 ft 16 kts 270°
2026-04-21 16:42 37.41985 -5.89842 97 ft 15 kts 287°
2026-04-21 16:43 37.42062 -5.89916 93 ft 14 kts 335°
2026-04-21 16:43 37.42147 -5.89904 93 ft 12 kts 29°
2026-04-21 16:43 37.42213 -5.89947 93 ft 8 kts 314°
2026-04-21 16:43 37.42218 -5.89952 93 ft 0 kts 314°